KA8OAD-1 Weather Reports


time (UTC)temp
C
wind
direction
speed
KPH
gust
KPH
rain 1hr
cm
rain 24hr
cm
rain mn
cm
humidity
%
barometer
mb
20260508075004 8 242 3.2 6.4 0.03 0.03 0.03 79 1010.9
20260508074005 8 245 3.2 6.4 0.03 0.03 0.03 78 1010.9
20260508073503 8 238 4.8 8.0 0.03 0.03 0.03 78 1011.0
20260508073005 8 238 4.8 11.3 0.03 0.03 0.03 77 1011.0
20260508072005 8 243 4.8 12.9 0.03 0.03 0.03 76 1010.9
20260508071503 8 240 4.8 12.9 0.03 0.03 0.03 74 1011.0
20260508070503 8 232 8.0 20.9 0.00 0.00 0.00 71 1011.1
20260508065504 8 230 4.8 14.5 0.00 0.00 0.00 70 1011.0
20260508065005 8 234 3.2 12.9 0.00 0.00 0.00 70 1011.0
20260508064504 8 228 3.2 9.7 0.00 0.00 0.00 70 1011.1
20260508064005 8 225 3.2 9.7 0.00 0.00 0.00 70 1011.0
20260508063504 8 228 3.2 6.4 0.00 0.00 0.00 70 1011.1
20260508063005 8 240 1.6 6.4 0.00 0.00 0.00 70 1011.1
20260508062504 8 240 1.6 6.4 0.00 0.00 0.00 70 1011.2
20260508062004 8 0 0.0 0.0 0.00 0.00 0.00 70 1011.0
20260508061504 8 240 0.0 1.6 0.00 0.00 0.00 70 1011.1
20260508061004 8 239 0.0 3.2 0.00 0.00 0.00 70 1011.2
20260508060005 8 0 0.0 0.0 0.00 0.00 0.00 69 1011.2
20260508055504 8 0 0.0 0.0 0.00 0.00 0.00 69 1011.2
20260508055005 8 0 0.0 0.0 0.00 0.00 0.00 69 1011.2
20260508054503 8 0 0.0 0.0 0.00 0.00 0.00 69 1011.3
20260508054005 8 0 0.0 0.0 0.00 0.00 0.00 69 1011.4
20260508053503 8 0 0.0 0.0 0.00 0.00 0.00 68 1011.5
20260508053005 8 0 0.0 0.0 0.00 0.00 0.00 68 1011.5
20260508052503 8 0 0.0 0.0 0.00 0.00 0.00 68 1011.6
20260508052004 8 0 0.0 0.0 0.00 0.00 0.00 68 1011.6
20260508051504 8 0 0.0 0.0 0.00 0.00 0.00 68 1011.5
20260508051004 8 0 0.0 0.0 0.00 0.00 0.00 68 1011.7
20260508050504 8 0 0.0 0.0 0.00 0.00 0.00 67 1011.7
20260508050004 8 0 0.0 0.0 0.00 0.00 0.00 67 1011.8
20260508045504 8 0 0.0 0.0 0.00 0.00 0.00 67 1011.7
20260508045004 8 0 0.0 0.0 0.00 0.00 0.00 67 1011.7
20260508044504 8 0 0.0 0.0 0.00 0.00 0.00 67 1011.6
20260508044004 8 239 0.0 1.6 0.00 0.00 0.00 67 1011.6
20260508043504 8 239 1.6 4.8 0.00 0.00 0.00 67 1011.6
20260508043005 8 238 3.2 6.4 0.00 0.00 0.00 67 1011.7
20260508042503 8 237 1.6 6.4 0.00 0.00 0.00 67 1011.7
20260508042005 8 231 3.2 6.4 0.00 0.00 0.00 67 1011.7
20260508041504 8 228 4.8 6.4 0.00 0.00 0.00 67 1011.7
20260508040504 8 233 3.2 8.0 0.00 0.00 0.00 68 1011.8
20260508040008 7 234 3.2 6.4 0.00 0.00 0.00 68 1011.8
20260508035503 7 230 3.2 8.0 0.00 0.00 0.00 68 1011.8
20260508035005 7 235 4.8 8.0 0.00 0.00 0.00 69 1011.9
20260508034504 7 253 3.2 9.7 0.00 0.00 0.00 70 1011.9
20260508033504 7 257 1.6 6.4 0.00 0.00 0.00 70 1011.9
20260508033004 7 285 1.6 6.4 0.00 0.00 0.00 70 1011.8
20260508032504 7 305 0.0 3.2 0.00 0.00 0.00 69 1011.9
20260508032004 7 0 0.0 0.0 0.00 0.00 0.00 68 1011.8
20260508031504 7 0 0.0 0.0 0.00 0.00 0.00 68 1011.8
20260508031004 7 0 0.0 0.0 0.00 0.00 0.00 68 1011.8
20260508025504 7 321 0.0 1.6 0.00 0.00 0.00 68 1011.8
20260508025004 7 0 0.0 0.0 0.00 0.00 0.00 68 1011.8
20260508024504 7 0 0.0 0.0 0.00 0.00 0.00 68 1011.8
20260508024004 7 0 0.0 0.0 0.00 0.00 0.00 67 1011.8
20260508023503 7 0 0.0 0.0 0.00 0.00 0.00 67 1011.6
20260508022504 8 0 0.0 0.0 0.00 0.00 0.00 67 1011.6
20260508022004 8 0 0.0 0.0 0.00 0.00 0.00 67 1011.5
20260508021504 8 0 0.0 0.0 0.00 0.00 0.00 66 1011.6
20260508021004 8 0 0.0 0.0 0.00 0.00 0.00 65 1011.6
20260508015004 8 0 0.0 0.0 0.00 0.00 0.00 63 1011.5
20260508014504 8 0 0.0 0.0 0.00 0.00 0.00 62 1011.5
20260508014004 8 0 0.0 0.0 0.00 0.00 0.00 62 1011.5
20260508013504 9 0 0.0 0.0 0.00 0.00 0.00 61 1011.4
20260508013005 9 0 0.0 0.0 0.00 0.00 0.00 60 1011.4
20260508012004 10 0 0.0 0.0 0.00 0.00 0.00 57 1011.4
20260508011504 10 0 0.0 0.0 0.00 0.00 0.00 57 1011.3
20260508011004 10 0 0.0 0.0 0.00 0.00 0.00 56 1011.2
20260508010504 10 0 0.0 0.0 0.00 0.00 0.00 54 1011.2
20260508010004 10 0 0.0 0.0 0.00 0.00 0.00 53 1011.2
20260508005504 10 0 0.0 0.0 0.00 0.00 0.00 52 1011.2
20260508005004 11 0 0.0 0.0 0.00 0.00 0.00 50 1011.2
20260508004504 11 321 0.0 1.6 0.00 0.00 0.00 51 1011.2
20260508004004 11 321 0.0 6.4 0.00 0.00 0.00 50 1011.2
20260508003503 11 321 1.6 6.4 0.00 0.00 0.00 49 1011.0
20260508003005 11 319 1.6 8.0 0.00 0.00 0.00 48 1011.0
20260508002503 11 313 3.2 12.9 0.00 0.00 0.00 48 1011.0
20260508002005 11 316 3.2 12.9 0.00 0.00 0.00 47 1011.0
20260508001503 11 319 3.2 9.7 0.00 0.00 0.00 47 1011.0
20260508001005 11 288 3.2 9.7 0.00 0.00 0.00 47 1010.9
20260508000503 11 279 3.2 8.0 0.00 0.00 0.00 47 1010.8
20260508000005 11 298 4.8 8.0 0.00 0.00 0.00 47 1010.8
20260507235504 11 302 4.8 14.5 0.00 0.00 0.00 46 1010.7
20260507235005 11 307 6.4 17.7 0.00 0.00 0.00 45 1010.7
20260507234504 12 309 8.0 17.7 0.00 0.00 0.00 45 1010.7
20260507234004 12 306 8.0 17.7 0.00 0.00 0.00 45 1010.7
20260507233504 12 306 8.0 22.5 0.00 0.00 0.00 46 1010.6
20260507232504 12 311 6.4 17.7 0.00 0.00 0.00 46 1010.6
20260507231504 12 317 6.4 16.1 0.00 0.00 0.00 45 1010.6
20260507231004 12 305 4.8 20.9 0.00 0.00 0.00 46 1010.6
20260507230006 12 294 4.8 14.5 0.00 0.00 0.00 46 1010.7
20260507225503 12 304 6.4 14.5 0.00 0.00 0.00 47 1010.8
20260507225005 12 312 8.0 25.7 0.00 0.00 0.00 46 1010.8
20260507224504 12 310 8.0 25.7 0.00 0.00 0.00 46 1010.7
20260507224005 12 307 6.4 16.1 0.00 0.00 0.00 47 1010.6
20260507223503 12 301 4.8 11.3 0.00 0.00 0.00 48 1010.6
20260507223005 12 302 6.4 20.9 0.00 0.00 0.00 47 1010.7
20260507222503 12 307 8.0 20.9 0.00 0.00 0.00 46 1010.7
20260507222004 12 305 8.0 19.3 0.00 0.00 0.00 48 1010.7
20260507221504 12 317 8.0 19.3 0.00 0.00 0.00 48 1010.7
20260507220504 12 304 6.4 16.1 0.00 0.00 0.00 49 1010.7
20260507220004 13 306 6.4 17.7 0.00 0.00 0.00 49 1010.6
20260507215504 13 311 6.4 17.7 0.00 0.00 0.00 49 1010.6
20260507215004 13 309 8.0 27.4 0.00 0.00 0.00 50 1010.6
20260507214504 13 307 9.7 29.0 0.00 0.00 0.00 50 1010.6
20260507214004 13 313 8.0 29.0 0.00 0.00 0.00 49 1010.6
20260507212005 13 304 9.7 19.3 0.00 0.00 0.00 45 1010.2
20260507211005 13 313 8.0 19.3 0.00 0.00 0.00 45 1010.0
20260507210504 13 314 9.7 22.5 0.00 0.00 0.00 47 1010.0
20260507210005 13 301 8.0 22.5 0.00 0.00 0.00 44 1010.0
20260507205504 13 281 6.4 17.7 0.00 0.00 0.00 46 1010.0
20260507204504 14 304 6.4 20.9 0.00 0.00 0.00 44 1009.9
20260507204004 14 295 6.4 20.9 0.00 0.00 0.00 45 1009.9
20260507203504 14 291 6.4 17.7 0.00 0.00 0.00 46 1009.8
20260507203004 14 302 6.4 19.3 0.00 0.00 0.00 45 1009.8
20260507202503 14 307 6.4 19.3 0.00 0.00 0.00 44 1009.8
20260507202005 15 301 6.4 16.1 0.00 0.00 0.00 46 1009.7
20260507201503 15 305 8.0 22.5 0.00 0.00 0.00 43 1009.9
20260507201004 15 310 8.0 22.5 0.00 0.00 0.00 44 1009.8
20260507200504 15 314 6.4 14.5 0.00 0.00 0.00 46 1009.8
20260507195504 15 316 9.7 25.7 0.00 0.00 0.00 45 1009.8
20260507195004 15 303 8.0 25.7 0.00 0.00 0.00 42 1009.8
20260507193503 16 308 4.8 14.5 0.00 0.00 0.00 46 1010.0
20260507193005 16 274 6.4 14.5 0.00 0.00 0.00 42 1010.1
20260507192503 16 283 6.4 16.1 0.00 0.00 0.00 40 1010.0
20260507191503 16 310 8.0 19.3 0.00 0.00 0.00 42 1010.1
20260507191004 16 313 8.0 19.3 0.00 0.00 0.00 44 1010.1
20260507190005 16 249 6.4 12.9 0.00 0.00 0.00 45 1010.2
20260507185504 16 233 6.4 14.5 0.00 0.00 0.00 48 1010.1
20260507185004 15 258 8.0 20.9 0.00 0.00 0.00 43 1010.1
20260507184504 15 282 8.0 22.5 0.00 0.00 0.00 45 1010.2
20260507183504 15 245 6.4 19.3 0.00 0.00 0.00 39 1010.2
20260507183004 16 233 6.4 19.3 0.00 0.00 0.00 41 1010.3
20260507182504 16 228 6.4 16.1 0.00 0.00 0.00 40 1010.1
20260507182004 16 242 6.4 16.1 0.00 0.00 0.00 40 1010.2
20260507181504 16 267 6.4 12.9 0.00 0.00 0.00 42 1010.2
20260507181004 16 269 6.4 12.9 0.00 0.00 0.00 41 1010.2
20260507180504 16 257 6.4 12.9 0.00 0.00 0.00 42 1010.2
20260507180005 16 255 6.4 17.7 0.00 0.00 0.00 41 1010.2
20260507175504 16 257 6.4 17.7 0.00 0.00 0.00 43 1010.4
20260507174004 16 276 8.0 20.9 0.00 0.00 0.00 44 1010.3
20260507173504 16 286 6.4 20.9 0.00 0.00 0.00 45 1010.4
20260507173005 16 261 6.4 14.5 0.00 0.00 0.00 44 1010.4
20260507171005 15 251 3.2 11.3 0.00 0.00 0.00 42 1010.5
20260507170504 15 271 4.8 16.1 0.00 0.00 0.00 48 1010.5
20260507170005 15 287 4.8 16.1 0.00 0.00 0.00 45 1010.6
20260507165504 15 309 4.8 12.9 0.00 0.00 0.00 43 1010.5
20260507165004 16 295 4.8 16.1 0.00 0.00 0.00 43 1010.5
20260507164004 16 294 4.8 14.5 0.00 0.00 0.00 43 1010.6
20260507163504 16 311 6.4 14.5 0.00 0.00 0.00 40 1010.6
20260507163004 15 311 4.8 14.5 0.00 0.00 0.00 45 1010.6
20260507162504 15 303 4.8 14.5 0.00 0.00 0.00 45 1010.6
20260507162004 15 305 4.8 14.5 0.00 0.00 0.00 44 1010.6
20260507161504 15 311 6.4 19.3 0.00 0.00 0.00 42 1010.6
20260507161004 15 306 6.4 19.3 0.00 0.00 0.00 44 1010.6
20260507160504 15 287 6.4 16.1 0.00 0.00 0.00 46 1010.6
20260507155504 15 278 4.8 12.9 0.00 0.00 0.00 45 1010.6
20260507155004 15 299 4.8 12.9 0.00 0.00 0.00 47 1010.6
20260507154504 15 316 6.4 22.5 0.00 0.00 0.00 45 1010.8
20260507154005 15 294 6.4 22.5 0.00 0.00 0.00 45 1010.7
20260507153504 15 229 3.2 14.5 0.00 0.00 0.00 45 1010.7
20260507153004 15 279 4.8 16.1 0.00 0.00 0.00 45 1010.7
20260507152505 14 288 4.8 16.1 0.00 0.00 0.00 49 1010.7
20260507151504 14 258 4.8 9.7 0.00 0.00 0.00 47 1010.8
20260507151004 14 268 4.8 9.7 0.00 0.00 0.00 53 1010.8
20260507150504 14 256 4.8 12.9 0.00 0.00 0.00 52 1010.7
20260507150006 14 282 4.8 12.9 0.00 0.00 0.00 51 1010.8
20260507145504 13 293 3.2 12.9 0.00 0.00 0.00 53 1010.9
20260507145004 13 302 3.2 9.7 0.00 0.00 0.00 55 1010.9
20260507144503 12 289 3.2 9.7 0.00 0.00 0.00 60 1010.9
20260507144005 12 270 3.2 6.4 0.00 0.00 0.00 62 1010.8
20260507143504 12 264 3.2 6.4 0.00 0.00 0.00 60 1010.9
20260507143005 11 301 3.2 8.0 0.00 0.00 0.00 62 1010.9
20260507142504 11 316 4.8 9.7 0.00 0.00 0.00 61 1010.9
20260507142005 11 306 4.8 9.7 0.00 0.00 0.00 64 1011.0
20260507141503 11 287 3.2 8.0 0.00 0.00 0.00 66 1011.1
20260507140504 10 299 3.2 8.0 0.00 0.00 0.00 69 1011.2
20260507135504 10 264 3.2 4.8 0.00 0.00 0.00 73 1011.3
20260507135005 10 298 3.2 8.0 0.00 0.00 0.00 75 1011.3
20260507134504 10 298 3.2 8.0 0.00 0.00 0.00 76 1011.3
20260507134004 9 267 3.2 8.0 0.00 0.00 0.00 76 1011.4
20260507133503 9 242 3.2 8.0 0.00 0.00 0.00 76 1011.4
20260507132504 8 273 3.2 14.5 0.00 0.00 0.00 78 1011.5
20260507132005 8 282 4.8 14.5 0.00 0.00 0.00 79 1011.5
20260507131503 8 300 3.2 8.0 0.00 0.00 0.00 81 1011.5
20260507130504 7 241 0.0 3.2 0.00 0.00 0.00 84 1011.4
20260507130005 7 239 1.6 4.8 0.00 0.00 0.00 85 1011.4
20260507125504 7 239 1.6 4.8 0.00 0.00 0.00 86 1011.5
20260507125004 7 242 1.6 6.4 0.00 0.00 0.00 87 1011.5
20260507124504 7 250 3.2 9.7 0.00 0.00 0.00 88 1011.5
20260507124004 7 251 3.2 9.7 0.00 0.00 0.00 89 1011.4
20260507123504 6 252 1.6 6.4 0.00 0.00 0.00 90 1011.5
20260507123004 6 264 1.6 4.8 0.00 0.00 0.00 90 1011.5
20260507122504 6 264 0.0 4.8 0.00 0.00 0.00 90 1011.4
20260507122005 6 264 0.0 1.6 0.00 0.00 0.00 90 1011.4
20260507121504 5 264 1.6 4.8 0.00 0.00 0.00 91 1011.4
20260507121005 5 264 1.6 4.8 0.00 0.00 0.00 91 1011.4
20260507120503 5 316 0.0 3.2 0.00 0.00 0.00 91 1011.3
20260507115504 5 324 0.0 3.2 0.00 0.00 0.00 91 1011.4
20260507114504 4 330 0.0 4.8 0.00 0.00 0.00 90 1011.5
20260507114005 4 0 0.0 0.0 0.00 0.00 0.00 90 1011.5
20260507113504 4 0 0.0 0.0 0.00 0.00 0.00 90 1011.5
20260507113004 3 0 0.0 0.0 0.00 0.00 0.00 90 1011.5
20260507112504 3 0 0.0 0.0 0.00 0.00 0.00 89 1011.3
20260507112004 3 0 0.0 0.0 0.00 0.00 0.00 89 1011.2
20260507111504 3 0 0.0 0.0 0.00 0.00 0.00 89 1011.3
20260507111004 3 0 0.0 0.0 0.00 0.00 0.00 89 1011.3
20260507110504 3 0 0.0 0.0 0.00 0.00 0.00 89 1011.3
20260507110005 3 0 0.0 0.0 0.00 0.00 0.00 89 1011.2
20260507105504 3 0 0.0 0.0 0.00 0.00 0.00 89 1011.1
20260507105004 3 0 0.0 0.0 0.00 0.00 0.00 89 1011.0
20260507104504 3 0 0.0 0.0 0.00 0.00 0.00 89 1011.1
20260507104004 3 0 0.0 0.0 0.00 0.00 0.00 89 1010.9
20260507103005 3 0 0.0 0.0 0.00 0.00 0.00 89 1010.9
20260507102503 3 0 0.0 0.0 0.00 0.00 0.00 89 1011.0
20260507102007 3 0 0.0 0.0 0.00 0.00 0.00 89 1010.9
20260507101503 3 0 0.0 0.0 0.00 0.00 0.00 89 1010.9
20260507101005 3 0 0.0 0.0 0.00 0.00 0.00 88 1011.0
20260507100503 3 0 0.0 0.0 0.00 0.00 0.00 88 1011.0
20260507100005 3 0 0.0 0.0 0.00 0.00 0.00 89 1011.0
20260507095504 3 0 0.0 0.0 0.00 0.03 0.00 88 1010.9
20260507095004 3 0 0.0 0.0 0.00 0.03 0.00 88 1010.9
20260507094504 3 0 0.0 0.0 0.00 0.05 0.00 88 1010.9
20260507093504 3 0 0.0 0.0 0.00 0.05 0.00 88 1010.9
20260507093004 3 0 0.0 0.0 0.00 0.05 0.00 88 1011.0
20260507092504 3 0 0.0 0.0 0.00 0.08 0.00 88 1011.0
20260507092005 3 0 0.0 0.0 0.00 0.08 0.00 88 1011.1
20260507091004 3 0 0.0 0.0 0.00 0.10 0.00 88 1011.0
20260507090503 3 0 0.0 0.0 0.00 0.13 0.00 88 1011.0
20260507090005 3 0 0.0 0.0 0.00 0.13 0.00 87 1011.1
20260507085504 3 0 0.0 0.0 0.00 0.13 0.00 87 1011.1
20260507085004 4 0 0.0 0.0 0.00 0.13 0.00 87 1011.2
20260507084504 4 0 0.0 0.0 0.00 0.13 0.00 87 1011.1
20260507084004 4 0 0.0 0.0 0.00 0.15 0.00 87 1011.2
20260507083505 4 0 0.0 0.0 0.00 0.15 0.00 87 1011.1
20260507083004 4 0 0.0 0.0 0.00 0.15 0.00 86 1011.1
20260507082504 4 0 0.0 0.0 0.00 0.15 0.00 86 1011.2
20260507081504 4 0 0.0 0.0 0.00 0.18 0.00 86 1011.2
20260507081005 4 0 0.0 0.0 0.00 0.20 0.00 86 1011.2
20260507080503 4 0 0.0 0.0 0.00 0.23 0.00 86 1011.2
20260507080005 4 0 0.0 0.0 0.00 0.25 0.00 86 1011.3
20260507075503 4 0 0.0 0.0 0.00 0.28 0.00 86 1011.3